******** Week 144 almanac for PRN-1 ******** ID: 1 Health: 0 Eccentricity: 0.01125478744 Time of Applicability(s): 405504 Orbital Inclination(rad): 0.9864299409 Rate of Right Ascen(r/s): -7.771752296e-09 SQRT(A) (m 1/2): 5153.628418 Right Ascen at Week(rad): -1.286251505 Argument of Perigee(rad): 0.8823670216 Mean Anom(rad): 2.260897058 Af0(s): 0.0003625173462 Af1(s/s): -1.091394e-11 week: 144 ******** Week 144 almanac for PRN-2 ******** ID: 2 Health: 0 Eccentricity: 0.0206785202 Time of Applicability(s): 405504 Orbital Inclination(rad): 0.9647624623 Rate of Right Ascen(r/s): -7.954617056e-09 SQRT(A) (m 1/2): 5153.625977 Right Ascen at Week(rad): -1.374874099 Argument of Perigee(rad): -1.458193299 Mean Anom(rad): 2.424321439 Af0(s): -0.0005124985352 Af1(s/s): 0 week: 144 ******** Week 144 almanac for PRN-3 ******** ID: 3 Health: 0 Eccentricity: 0.003865242004 Time of Applicability(s): 405504 Orbital Inclination(rad): 0.9725222479 Rate of Right Ascen(r/s): -7.543171346e-09 SQRT(A) (m 1/2): 5153.656738 Right Ascen at Week(rad): -0.250836943 Argument of Perigee(rad): 0.9772802103 Mean Anom(rad): 1.092763947 Af0(s): -6.104761963e-05 Af1(s/s): -1.455192e-11 week: 144 ******** Week 144 almanac for PRN-4 ******** ID: 4 Health: 0 Eccentricity: 0.00164604187 Time of Applicability(s): 405504 Orbital Inclination(rad): 0.9609394945 Rate of Right Ascen(r/s): -7.851755628e-09 SQRT(A) (m 1/2): 5153.602051 Right Ascen at Week(rad): 0.8299626276 Argument of Perigee(rad): -3.104418338 Mean Anom(rad): -2.201106262 Af0(s): -0.0001545032349 Af1(s/s): 0 week: 144 ******** Week 144 almanac for PRN-5 ******** ID: 5 Health: 0 Eccentricity: 0.005899906158 Time of Applicability(s): 405504 Orbital Inclination(rad): 0.9595013876 Rate of Right Ascen(r/s): -7.680319916e-09 SQRT(A) (m 1/2): 5153.602051 Right Ascen at Week(rad): -0.2907826117 Argument of Perigee(rad): 1.013172589 Mean Anom(rad): -1.376608816 Af0(s): -5.351087646e-05 Af1(s/s): 0 week: 144 ******** Week 144 almanac for PRN-6 ******** ID: 6 Health: 0 Eccentricity: 0.002624034882 Time of Applicability(s): 405504 Orbital Inclination(rad): 0.9858127533 Rate of Right Ascen(r/s): -7.760323248e-09 SQRT(A) (m 1/2): 5153.607422 Right Ascen at Week(rad): -1.294521369 Argument of Perigee(rad): -1.001651255 Mean Anom(rad): 2.630543734 Af0(s): 0.0001341540283 Af1(s/s): 1.091394e-11 week: 144 ******** Week 144 almanac for PRN-7 ******** ID: 7 Health: 0 Eccentricity: 0.01542901993 Time of Applicability(s): 405504 Orbital Inclination(rad): 0.9506031006 Rate of Right Ascen(r/s): -7.863184676e-09 SQRT(A) (m 1/2): 5153.645508 Right Ascen at Week(rad): 1.849532172 Argument of Perigee(rad): -2.296347519 Mean Anom(rad): 1.599863316 Af0(s): 0.000238161084 Af1(s/s): 3.637979e-12 week: 144 ******** Week 144 almanac for PRN-8 ******** ID: 8 Health: 0 Eccentricity: 0.007116794586 Time of Applicability(s): 405504 Orbital Inclination(rad): 0.9651938944 Rate of Right Ascen(r/s): -8.080336578e-09 SQRT(A) (m 1/2): 5153.65625 Right Ascen at Week(rad): -2.365808087 Argument of Perigee(rad): 0.07856633147 Mean Anom(rad): -1.721738389 Af0(s): -4.14520874e-05 Af1(s/s): 0 week: 144 ******** Week 144 almanac for PRN-9 ******** ID: 9 Health: 0 Eccentricity: 0.002334594727 Time of Applicability(s): 405504 Orbital Inclination(rad): 0.9539586835 Rate of Right Ascen(r/s): -7.920329913e-09 SQRT(A) (m 1/2): 5153.578613 Right Ascen at Week(rad): 0.7772683651 Argument of Perigee(rad): 1.858523336 Mean Anom(rad): -1.392689773 Af0(s): -0.0002826278686 Af1(s/s): 0 week: 144 ******** Week 144 almanac for PRN-10 ******** ID: 10 Health: 0 Eccentricity: 0.007427692413 Time of Applicability(s): 405504 Orbital Inclination(rad): 0.9723544688 Rate of Right Ascen(r/s): -7.566029441e-09 SQRT(A) (m 1/2): 5153.635742 Right Ascen at Week(rad): -0.2536337615 Argument of Perigee(rad): -2.538039749 Mean Anom(rad): 0.2545996151 Af0(s): -0.0002313780151 Af1(s/s): -1.091394e-11 week: 144 ******** Week 144 almanac for PRN-11 ******** ID: 11 Health: 255 Eccentricity: 0.0003018379211 Time of Applicability(s): 405504 Orbital Inclination(rad): 0.9615446979 Rate of Right Ascen(r/s): -7.977475151e-09 SQRT(A) (m 1/2): 5153.710938 Right Ascen at Week(rad): -1.241697153 Argument of Perigee(rad): 2.837400445 Mean Anom(rad): -1.848694025 Af0(s): -3.165432129e-05 Af1(s/s): -3.637979e-11 week: 144 ******** Week 144 almanac for PRN-12 ******** ID: 12 Health: 0 Eccentricity: 0.008570194244 Time of Applicability(s): 405504 Orbital Inclination(rad): 0.9710661646 Rate of Right Ascen(r/s): -7.623174678e-09 SQRT(A) (m 1/2): 5153.580078 Right Ascen at Week(rad): 2.961846883 Argument of Perigee(rad): 1.237386202 Mean Anom(rad): 0.9338141756 Af0(s): -0.0001228489136 Af1(s/s): -7.275958e-12 week: 144 ******** Week 144 almanac for PRN-13 ******** ID: 13 Health: 0 Eccentricity: 0.005788326263 Time of Applicability(s): 405504 Orbital Inclination(rad): 0.9683337613 Rate of Right Ascen(r/s): -7.783181343e-09 SQRT(A) (m 1/2): 5153.616699 Right Ascen at Week(rad): 0.929599099 Argument of Perigee(rad): 0.9714532555 Mean Anom(rad): -2.340103048 Af0(s): 0.0001936942993 Af1(s/s): 7.275958e-12 week: 144 ******** Week 144 almanac for PRN-14 ******** ID: 14 Health: 0 Eccentricity: 0.0013256073 Time of Applicability(s): 405504 Orbital Inclination(rad): 0.954462021 Rate of Right Ascen(r/s): -7.783181343e-09 SQRT(A) (m 1/2): 5153.601074 Right Ascen at Week(rad): 2.93108937 Argument of Perigee(rad): 3.042759876 Mean Anom(rad): 0.9724325913 Af0(s): -5.50182251e-05 Af1(s/s): -3.637979e-12 week: 144 ******** Week 144 almanac for PRN-15 ******** ID: 15 Health: 0 Eccentricity: 0.01391839981 Time of Applicability(s): 405504 Orbital Inclination(rad): 0.9298763836 Rate of Right Ascen(r/s): -8.148910863e-09 SQRT(A) (m 1/2): 5153.658691 Right Ascen at Week(rad): 0.6720805761 Argument of Perigee(rad): 1.069998413 Mean Anom(rad): -2.73649402 Af0(s): -7.235273437e-05 Af1(s/s): 3.637979e-12 week: 144 ******** Week 144 almanac for PRN-16 ******** ID: 16 Health: 0 Eccentricity: 0.01262998581 Time of Applicability(s): 405504 Orbital Inclination(rad): 0.9710302119 Rate of Right Ascen(r/s): -7.646032773e-09 SQRT(A) (m 1/2): 5153.546875 Right Ascen at Week(rad): 2.980474863 Argument of Perigee(rad): 0.696801036 Mean Anom(rad): -0.9222729925 Af0(s): -0.0003595026489 Af1(s/s): -3.637979e-12 week: 144 ******** Week 144 almanac for PRN-17 ******** ID: 17 Health: 0 Eccentricity: 0.01373004913 Time of Applicability(s): 405504 Orbital Inclination(rad): 0.9802221124 Rate of Right Ascen(r/s): -7.931758961e-09 SQRT(A) (m 1/2): 5153.692871 Right Ascen at Week(rad): -2.284397374 Argument of Perigee(rad): -1.509345716 Mean Anom(rad): -1.81829117 Af0(s): 0.000443160498 Af1(s/s): 3.637979e-12 week: 144 ******** Week 144 almanac for PRN-18 ******** ID: 18 Health: 0 Eccentricity: 0.002089977264 Time of Applicability(s): 405504 Orbital Inclination(rad): 0.9702212767 Rate of Right Ascen(r/s): -7.908900866e-09 SQRT(A) (m 1/2): 5153.58252 Right Ascen at Week(rad): -1.277943066 Argument of Perigee(rad): 3.109154729 Mean Anom(rad): 2.448176039 Af0(s): 0.0002065067627 Af1(s/s): -7.275958e-12 week: 144 ******** Week 144 almanac for PRN-19 ******** ID: 19 Health: 0 Eccentricity: 0.008929252624 Time of Applicability(s): 405504 Orbital Inclination(rad): 0.978921824 Rate of Right Ascen(r/s): -7.966046103e-09 SQRT(A) (m 1/2): 5153.630859 Right Ascen at Week(rad): -2.239475256 Argument of Perigee(rad): 1.995948316 Mean Anom(rad): 0.5784680502 Af0(s): 8.29041748e-05 Af1(s/s): 3.637979e-12 week: 144 ******** Week 144 almanac for PRN-20 ******** ID: 20 Health: 0 Eccentricity: 0.005303382874 Time of Applicability(s): 405504 Orbital Inclination(rad): 0.9416448924 Rate of Right Ascen(r/s): -7.874613723e-09 SQRT(A) (m 1/2): 5153.675293 Right Ascen at Week(rad): -0.404161993 Argument of Perigee(rad): 3.099244524 Mean Anom(rad): -2.958646721 Af0(s): 0.0004084914795 Af1(s/s): 0 week: 144 ******** Week 144 almanac for PRN-21 ******** ID: 21 Health: 0 Eccentricity: 0.02450847626 Time of Applicability(s): 405504 Orbital Inclination(rad): 0.9590040422 Rate of Right Ascen(r/s): -8.000333246e-09 SQRT(A) (m 1/2): 5153.546387 Right Ascen at Week(rad): -1.376295728 Argument of Perigee(rad): -1.027266412 Mean Anom(rad): -1.660739808 Af0(s): 0.0001236025879 Af1(s/s): 0 week: 144 ******** Week 144 almanac for PRN-22 ******** ID: 22 Health: 255 Eccentricity: 0.006882667541 Time of Applicability(s): 405504 Orbital Inclination(rad): 0.9383911754 Rate of Right Ascen(r/s): -7.874613723e-09 SQRT(A) (m 1/2): 5153.583496 Right Ascen at Week(rad): -0.3583747637 Argument of Perigee(rad): -0.8567102941 Mean Anom(rad): -2.925787474 Af0(s): -0.0003308630249 Af1(s/s): 7.275958e-12 week: 144 ******** Week 144 almanac for PRN-23 ******** ID: 23 Health: 0 Eccentricity: 0.00195646286 Time of Applicability(s): 405504 Orbital Inclination(rad): 0.9673929997 Rate of Right Ascen(r/s): -7.611745631e-09 SQRT(A) (m 1/2): 5153.654297 Right Ascen at Week(rad): -0.2783130257 Argument of Perigee(rad): 2.908470269 Mean Anom(rad): 1.607906229 Af0(s): 9.044091797e-06 Af1(s/s): -3.637979e-12 week: 144 ******** Week 144 almanac for PRN-24 ******** ID: 24 Health: 0 Eccentricity: 0.0122756958 Time of Applicability(s): 405504 Orbital Inclination(rad): 0.9340468939 Rate of Right Ascen(r/s): -8.080336578e-09 SQRT(A) (m 1/2): 5153.635254 Right Ascen at Week(rad): 1.767315895 Argument of Perigee(rad): 0.8008915195 Mean Anom(rad): 2.566227021 Af0(s): 0.0002193192261 Af1(s/s): 0 week: 144 ******** Week 144 almanac for PRN-25 ******** ID: 25 Health: 0 Eccentricity: 0.01035499573 Time of Applicability(s): 405504 Orbital Inclination(rad): 0.9584467758 Rate of Right Ascen(r/s): -7.726036106e-09 SQRT(A) (m 1/2): 5153.682129 Right Ascen at Week(rad): 2.885562423 Argument of Perigee(rad): 0.9717004301 Mean Anom(rad): 0.7040080493 Af0(s): 0.0002132898315 Af1(s/s): 7.275958e-12 week: 144 ******** Week 144 almanac for PRN-26 ******** ID: 26 Health: 0 Eccentricity: 0.006766319275 Time of Applicability(s): 405504 Orbital Inclination(rad): 0.9392720159 Rate of Right Ascen(r/s): -7.920329913e-09 SQRT(A) (m 1/2): 5153.635254 Right Ascen at Week(rad): 2.83920819 Argument of Perigee(rad): 0.3482746836 Mean Anom(rad): 0.05570604795 Af0(s): 0.0001379223999 Af1(s/s): 3.637979e-12 week: 144 ******** Week 144 almanac for PRN-27 ******** ID: 27 Health: 0 Eccentricity: 0.0100069046 Time of Applicability(s): 405504 Orbital Inclination(rad): 0.9738644811 Rate of Right Ascen(r/s): -8.000333246e-09 SQRT(A) (m 1/2): 5153.601562 Right Ascen at Week(rad): -2.346648682 Argument of Perigee(rad): 0.62953096 Mean Anom(rad): -1.796029348 Af0(s): 5.200352783e-05 Af1(s/s): 2.182787e-11 week: 144 ******** Week 144 almanac for PRN-29 ******** ID: 29 Health: 0 Eccentricity: 0.001762866974 Time of Applicability(s): 405504 Orbital Inclination(rad): 0.9822055016 Rate of Right Ascen(r/s): -7.943188008e-09 SQRT(A) (m 1/2): 5153.719238 Right Ascen at Week(rad): -2.271454411 Argument of Perigee(rad): 2.295482408 Mean Anom(rad): -1.692203641 Af0(s): -0.0003685467407 Af1(s/s): -3.637979e-12 week: 144 ******** Week 144 almanac for PRN-30 ******** ID: 30 Health: 0 Eccentricity: 0.005417346954 Time of Applicability(s): 405504 Orbital Inclination(rad): 0.9357846065 Rate of Right Ascen(r/s): -8.011762293e-09 SQRT(A) (m 1/2): 5153.531738 Right Ascen at Week(rad): 1.863180331 Argument of Perigee(rad): -2.752817658 Mean Anom(rad): 1.612250885 Af0(s): -0.000400201062 Af1(s/s): -3.637979e-12 week: 144 ******** Week 144 almanac for PRN-31 ******** ID: 31 Health: 0 Eccentricity: 0.01046228409 Time of Applicability(s): 405504 Orbital Inclination(rad): 0.9548515083 Rate of Right Ascen(r/s): -7.806039438e-09 SQRT(A) (m 1/2): 5153.616699 Right Ascen at Week(rad): 1.867498772 Argument of Perigee(rad): 0.3660873614 Mean Anom(rad): 1.147669299 Af0(s): -0.0001266172852 Af1(s/s): 0 week: 144 ******** Week 144 almanac for PRN-32 ******** ID: 32 Health: 0 Eccentricity: 0.005414009094 Time of Applicability(s): 405504 Orbital Inclination(rad): 0.957817604 Rate of Right Ascen(r/s): -7.851755628e-09 SQRT(A) (m 1/2): 5153.702148 Right Ascen at Week(rad): 0.7883260597 Argument of Perigee(rad): -2.37498276 Mean Anom(rad): -1.112276886 Af0(s): -3.919106445e-05 Af1(s/s): -7.275958e-12 week: 144